Regional Weather Roundup
Issued by NWS

Home | Current Version | Previous Version | Text Only | Print | Product List | Glossary On
Versions: 1 2 3 4 5 6 7 8 9 10 11 12 13 14 15 16 17 18 19 20 21 22 23 24 25 26 27 28 29 30 31 32 33 34 35 36 37 38 39 40 41 42 43 44 45 46 47 48 49 50
000
ASUS43 KFSD 171010
RWRSD

WEATHER ROUNDUP FOR SOUTH DAKOTA
NATIONAL WEATHER SERVICE SIOUX FALLS SD
400 AM CST SUN DEC 17 2017

NOTE: "FAIR" INDICATES FEW OR NO CLOUDS BELOW 12,000 FEET WITH NO
SIGNIFICANT WEATHER AND/OR OBSTRUCTIONS TO VISIBILITY.


SDZ001>005-009-010-012>017-171100-
NORTHWEST AND NORTH CENTRAL SOUTH DAKOTA

CITY           SKY/WX    TMP DP  RH WIND       PRES   REMARKS
BUFFALO          N/A     25  21  85 W6        29.95F WCI  18
FAITH            N/A     25  23  92 W5        30.03F WCI  19
MOBRIDGE       CLOUDY    28  24  85 N3        30.02F
$$

SDZ012>016-024>037-041>051-057-063-072>074-171100-
SOUTHWEST AND SOUTH CENTRAL SOUTH DAKOTA

CITY           SKY/WX    TMP DP  RH WIND       PRES   REMARKS
RAPID CTY ARPT CLOUDY    29  26  89 N6        30.03F WCI  23
PIERRE         CLOUDY    28  28 100 CALM      30.05R
CUSTER         CLOUDY    23  19  85 CALM      29.94F
ELLSWORTH AFB  CLOUDY    30  30 100 NW5       30.02F WCI  25
PHILIP         CLOUDY    31  29  92 W5        30.06R WCI  26
PINE RIDGE     CLOUDY    30  28  92 W3        30.03S
SPEARFISH      MIX PCPN  28  28 100 CALM      30.01S
WINNER         PTSUNNY   30  28  92 W3        30.04S
$$

SDZ004>011-016>023-039-040-171100-
NORTHEAST SOUTH DAKOTA

CITY           SKY/WX    TMP DP  RH WIND       PRES   REMARKS
ABERDEEN       CLOUDY    21  21 100 CALM      30.06S
WATERTOWN      CLOUDY    26  26 100 CALM      30.04S
BROOKINGS      CLOUDY    27  27 100 CALM      30.04R FOG
SISSETON         N/A     27  26  96 CALM      30.06R
$$

SDZ017-020-022-023-036>040-048>070-171100-
SOUTHEAST SOUTH DAKOTA

CITY           SKY/WX    TMP DP  RH WIND       PRES   REMARKS
SIOUX FALLS    FOG       22  22 100 NW5       30.05R VSB 1   WCI  16
HURON          FOG       26  26 100 MISG      30.06F VSB 1/2
CHAMBERLAIN    CLOUDY    33  32  97 CALM      30.05S
MITCHELL       CLOUDY    27  27 100 CALM      30.08R FOG
YANKTON        CLEAR     24  22  91 N10       30.03F WCI  14
$$

ABBREVIATIONS USED IN REMARKS
   TC - TEMPERATURE IN CELSIUS
  WCI - WIND CHILL INDEX
   HX - HEAT INDEX
  VSB - VISIBILITY





USA.gov is the U.S. government's official web portal to all federal, state and local government web resources and services.